Theta_e
260 259 259 258 258 258 258 258 258 258 258 258 258 257 257 258 257 257 257 257 256 256 255 255 255 255 255 255 255 255 255 255 255 256 256 256 255 254 253 254 253 254 254 254 254 254 254 253 253 253 254 254 254 254 255 255 255 255 255 256 255 256 255 254 252 252 255 258 258 258 260 260 259 260 259 260 261 261 264 261 261 261 261 261 262
259 258 258 258 257 257 257 257 256 256 256 256 257 257 257 257 256 256 256 256 255 255 255 255 255 255 254 255 255 254 255 255 255 255 256 256 255 255 254 254 253 253 253 253 253 253 253 252 253 253 254 253 253 254 254 254 254 254 255 255 255 255 255 254 253 253 252 256 257 259 259 260 258 260 259 259 259 260 260 260 261 261 261 261 261
258 258 257 257 256 256 256 255 255 255 255 255 255 255 255 255 255 255 255 254 255 254 254 254 254 254 254 254 254 254 254 254 255 255 257 256 254 254 254 253 253 253 253 253 253 253 253 253 252 253 254 253 253 253 254 253 254 254 254 255 255 254 255 255 254 252 253 254 257 256 257 258 257 258 259 259 259 259 258 259 259 260 261 261 261
257 257 256 256 256 255 255 254 255 254 254 254 254 254 254 253 254 254 254 254 254 254 254 254 254 254 253 254 254 253 254 254 255 257 257 255 254 253 253 253 253 253 252 252 253 253 252 252 253 253 253 253 252 253 253 253 253 254 254 254 254 254 254 254 254 254 254 253 255 255 257 257 257 259 259 259 258 258 258 259 260 260 260 261 261
256 255 255 255 254 254 254 254 254 254 253 253 253 253 253 253 253 253 253 253 253 253 254 253 253 253 253 253 253 253 254 255 255 257 256 254 254 253 253 253 253 253 253 253 254 252 252 252 252 252 253 252 252 252 253 252 253 254 254 254 254 254 254 254 254 254 254 253 254 256 256 256 257 258 258 257 257 258 258 258 258 259 259 260 260
255 254 253 254 253 253 253 253 253 252 252 252 252 252 253 253 252 253 253 253 252 253 253 253 253 252 253 253 253 254 254 255 256 257 255 254 254 254 254 253 253 253 253 252 252 252 252 252 251 252 252 252 252 252 252 252 253 254 254 254 254 254 253 253 254 254 254 254 254 254 255 255 255 256 257 257 256 256 257 258 258 258 259 259 259
254 254 253 253 253 252 252 253 253 252 252 251 251 251 251 251 252 252 253 253 252 252 252 252 253 252 253 253 254 254 254 255 258 259 256 253 253 253 253 253 252 252 252 252 252 252 252 251 251 251 252 251 251 252 252 252 253 253 254 254 254 253 252 252 253 253 253 253 253 254 254 255 255 254 256 257 257 257 256 256 257 259 258 257 257
254 254 253 253 252 252 251 251 251 251 251 251 251 251 251 251 251 251 252 252 252 251 252 252 252 253 253 253 254 254 254 256 259 260 257 253 253 253 253 252 252 252 252 252 252 252 252 252 251 252 252 251 252 253 253 253 254 254 255 254 253 252 251 252 252 252 252 252 252 252 253 253 254 255 256 256 255 256 257 257 256 257 257 258 257
255 254 253 253 252 251 251 251 250 251 251 251 251 251 252 251 251 251 252 252 253 252 252 252 252 253 253 253 254 254 254 256 259 261 256 251 252 253 252 252 252 252 252 252 252 252 252 252 252 253 255 256 256 256 256 256 255 254 255 255 253 252 251 251 251 252 252 252 252 253 253 253 253 253 254 254 254 255 257 258 257 257 257 256 257
255 255 254 253 252 252 251 251 251 250 251 251 250 250 250 251 251 251 252 252 253 253 252 252 252 252 252 253 253 254 254 256 260 262 260 256 253 252 252 252 251 251 251 252 252 252 252 252 253 255 256 255 255 255 255 256 257 257 256 255 253 252 252 251 251 252 252 251 251 252 251 251 252 253 253 254 256 258 258 258 255 256 256 255 256
255 254 254 253 252 252 251 251 251 251 251 251 250 250 252 250 251 252 252 253 253 253 252 252 252 252 252 252 252 253 253 256 261 262 265 261 255 252 250 251 251 251 251 251 251 252 252 253 253 254 254 254 254 255 255 256 257 257 257 257 256 254 252 252 252 252 252 252 252 252 252 251 253 254 254 256 258 258 257 256 255 255 254 253 251
254 254 254 252 253 252 252 252 251 251 251 251 251 250 250 251 251 252 253 253 253 253 253 252 252 251 251 251 251 252 252 258 261 262 265 266 259 253 250 251 251 252 251 251 252 252 252 253 253 253 253 254 254 253 254 256 257 257 257 257 256 256 256 254 253 252 253 252 252 252 252 252 253 254 256 257 257 257 256 255 255 254 253 253 253
254 253 253 252 251 251 251 250 250 250 250 249 249 250 250 252 252 252 253 252 252 252 252 253 252 252 250 251 252 252 253 257 260 261 263 267 264 255 251 250 251 251 251 252 252 252 252 252 253 253 254 255 254 253 254 255 256 257 257 256 255 256 256 256 256 255 254 254 253 253 253 253 253 255 258 258 259 256 255 254 254 255 254 253 253
253 253 252 252 251 250 250 249 249 249 249 249 249 251 251 251 251 252 252 252 252 252 252 253 253 252 251 251 252 252 252 257 260 261 261 267 263 257 248 250 250 250 252 251 252 252 252 252 252 252 254 254 254 254 254 255 256 256 255 254 254 254 255 255 255 256 257 255 253 253 254 256 255 258 259 260 257 255 254 254 255 254 254 253 255
252 252 251 251 250 249 250 248 248 249 249 249 251 250 250 250 251 252 252 252 252 252 252 252 252 252 251 250 251 253 253 258 259 260 260 265 262 257 251 251 251 252 252 251 251 252 251 252 252 252 253 253 254 255 255 256 256 255 254 254 254 254 254 253 252 254 255 255 255 255 257 258 259 260 260 260 258 256 256 255 255 255 255 256 256
252 251 250 249 249 249 247 248 249 249 250 250 250 250 250 250 251 252 253 252 253 252 253 252 252 252 252 250 250 252 253 258 259 260 260 264 260 255 252 252 251 252 253 252 252 252 252 252 252 253 253 253 255 256 257 258 256 254 254 254 254 254 254 256 258 259 258 257 257 258 259 260 263 260 261 259 257 257 257 256 256 255 253 252 252
251 250 249 248 249 248 248 248 249 249 249 249 249 249 250 251 251 252 252 252 252 251 250 250 250 250 251 251 250 252 252 255 258 259 259 263 258 253 252 252 252 252 252 252 252 252 252 252 253 253 253 253 255 257 258 258 256 254 254 253 253 253 254 256 258 258 259 259 259 263 263 263 262 263 263 260 258 257 255 254 253 253 252 250 251
249 249 249 249 249 249 248 248 248 248 248 248 249 249 249 250 251 251 251 251 252 251 250 251 251 250 251 251 252 252 252 255 257 259 259 259 257 253 252 251 251 251 252 253 252 252 253 255 255 254 254 254 256 257 258 258 255 254 253 252 252 252 254 255 256 256 258 258 258 258 257 257 257 257 258 258 258 257 254 252 253 253 252 252 251
249 250 250 249 248 248 248 248 248 247 248 248 247 248 249 250 252 250 250 249 250 249 251 250 250 251 251 252 255 253 251 253 256 258 258 259 257 252 252 251 251 251 252 252 253 253 253 254 255 255 255 255 256 257 258 258 256 254 253 252 252 252 254 255 254 254 254 254 255 255 255 256 255 255 256 257 257 257 255 254 254 253 252 252 252
250 249 249 248 248 248 248 246 248 246 244 246 248 247 250 250 249 250 250 249 250 249 250 250 248 250 252 251 252 251 251 252 254 257 258 258 258 255 250 250 251 251 251 251 251 252 253 253 254 255 255 256 256 257 258 259 256 255 253 252 252 253 255 255 255 255 254 254 254 255 255 255 255 255 255 255 255 256 256 255 254 254 253 253 253
249 249 244 242 245 248 248 244 244 247 248 246 247 247 246 248 250 249 250 250 249 250 249 249 249 251 251 252 251 251 252 253 254 256 257 257 257 256 250 251 251 251 251 251 251 251 252 252 253 254 255 256 256 257 259 259 258 255 253 253 255 256 257 254 254 255 254 254 254 254 254 255 255 255 255 255 255 255 255 255 255 255 254 253 253
246 243 243 244 244 249 249 249 245 245 248 247 244 245 247 249 247 246 246 246 247 248 249 248 247 249 251 251 250 250 252 254 253 255 256 256 256 257 253 250 253 252 251 250 251 251 251 252 252 254 255 256 256 258 259 259 258 256 256 258 258 257 256 255 254 254 254 254 253 253 253 253 253 254 254 254 255 255 255 255 255 255 256 255 254
244 244 245 244 246 245 247 246 247 245 246 246 245 246 244 245 245 246 245 245 245 245 245 247 246 248 249 248 249 249 249 251 254 254 255 256 256 256 256 255 255 253 250 250 250 251 252 252 253 255 255 256 257 258 258 258 257 256 258 258 257 257 256 254 254 254 253 253 253 252 252 252 253 253 253 254 254 255 255 255 255 256 256 257 257
246 246 248 245 244 245 246 246 245 244 246 245 245 245 245 245 245 246 245 245 245 246 246 247 246 247 248 250 250 250 249 250 252 254 254 255 255 256 256 255 255 253 252 251 251 251 251 252 254 255 256 256 257 257 257 257 256 257 257 257 257 256 254 254 253 253 253 252 252 251 252 252 253 253 253 254 255 255 256 256 256 256 256 256 257
247 247 247 246 245 244 244 244 245 243 245 245 247 246 246 245 248 245 245 244 244 244 246 246 247 247 248 249 249 250 250 250 250 252 254 254 255 255 255 255 255 255 253 252 252 252 254 255 255 255 256 256 256 257 257 256 257 257 257 257 256 254 253 253 252 252 251 251 251 251 252 252 253 254 255 255 255 256 256 256 256 256 257 257 257
248 247 246 245 246 244 246 246 245 244 245 245 245 245 247 247 246 245 245 245 245 244 245 247 247 247 247 248 249 249 250 250 250 250 252 253 254 254 255 254 254 254 254 253 254 254 255 255 255 255 255 256 256 255 255 255 257 257 256 256 253 253 252 252 252 252 251 251 251 251 252 253 253 254 255 255 254 254 254 254 254 254 255 255 255
249 248 247 247 244 244 247 246 246 246 245 243 245 246 246 243 246 248 246 244 243 245 247 247 247 247 248 249 249 249 249 250 250 250 251 252 252 253 253 253 254 254 253 253 253 253 254 254 254 255 255 256 256 257 256 256 255 255 254 253 253 253 253 252 252 252 251 251 251 252 252 253 254 254 253 253 253 253 254 254 253 253 254 254 254
249 248 248 247 247 246 247 252 248 246 246 245 247 245 244 245 246 247 246 245 244 246 245 246 247 247 248 248 248 249 250 250 250 251 252 253 253 253 253 253 252 252 252 252 253 254 253 254 253 253 253 254 254 254 254 254 254 253 253 253 253 253 254 255 254 252 252 252 252 252 252 252 252 252 253 253 253 253 254 253 253 252 253 253 252
249 247 247 247 248 249 247 247 245 245 246 245 243 247 247 246 248 248 246 248 247 247 247 248 249 246 247 247 248 250 251 251 252 255 254 255 254 254 253 253 253 253 253 254 254 254 252 252 252 252 252 252 252 252 253 253 253 253 252 252 252 252 252 251 251 251 251 251 251 251 251 251 251 252 252 252 252 252 253 253 253 252 253 253 251
248 249 248 248 247 248 247 246 245 245 245 246 245 247 252 254 252 250 249 254 255 255 255 249 248 247 248 250 248 249 251 253 255 255 256 256 256 256 256 255 255 254 255 255 255 252 251 250 251 250 251 251 251 251 251 251 251 252 252 253 252 251 252 251 251 251 252 251 251 251 251 251 251 251 251 251 251 252 252 253 252 252 251 251 251
250 249 249 249 249 248 247 247 244 243 243 244 245 247 247 250 255 256 256 255 256 256 257 257 257 257 254 252 253 254 254 255 255 255 256 256 256 256 256 255 255 255 256 254 252 249 250 250 250 250 251 250 250 251 251 251 251 251 251 251 251 251 252 251 251 252 251 251 251 251 251 251 250 251 250 251 251 251 251 252 252 252 251 251 250
251 250 250 249 250 249 247 247 246 246 246 243 245 246 245 245 249 253 256 256 257 257 257 257 257 257 257 256 255 254 255 256 256 256 256 256 256 256 255 255 255 256 255 255 251 250 249 249 250 250 250 250 251 251 251 250 250 250 250 250 251 251 251 251 252 251 251 251 251 251 251 251 250 251 251 251 251 250 250 250 250 250 251 251 251
251 250 249 250 249 250 247 246 246 245 246 247 246 246 246 245 246 249 251 255 256 256 256 256 257 257 257 257 257 256 256 256 256 256 256 256 256 255 255 255 255 255 255 251 247 250 250 249 249 250 250 250 250 250 250 250 250 250 250 250 250 251 251 251 252 251 251 252 252 251 251 251 251 251 251 250 250 249 249 249 249 250 250 250 250
250 251 250 250 250 248 247 247 246 245 243 243 244 244 245 245 245 244 247 250 251 252 255 256 256 256 256 256 256 256 256 256 256 256 256 256 256 255 255 254 255 255 254 250 248 249 250 249 250 250 250 250 250 250 250 250 250 250 250 250 251 251 251 251 251 251 251 251 251 252 251 251 251 250 249 249 249 249 249 249 249 249 249 249 249
249 250 251 250 248 249 247 246 247 244 243 244 245 246 246 246 247 247 246 246 248 250 251 251 254 255 254 254 255 255 255 255 255 255 255 256 255 255 255 252 251 250 250 248 248 248 249 250 250 250 250 250 250 250 250 250 250 250 250 250 250 251 251 251 250 250 250 251 251 251 251 251 250 250 249 249 248 248 248 248 248 249 248 248 249
250 250 249 250 248 246 246 246 245 246 245 244 243 245 246 247 247 246 247 247 247 249 250 250 251 252 254 254 255 255 255 255 255 255 255 255 255 255 251 250 250 250 250 250 249 250 250 250 250 250 250 250 250 250 250 250 250 250 250 250 250 250 250 250 250 250 251 250 250 251 251 251 250 249 249 249 248 248 248 248 248 249 249 249 249
250 250 249 248 247 246 245 245 244 245 249 247 246 245 246 246 247 246 246 246 247 248 249 250 250 251 253 252 253 254 255 254 254 254 254 255 255 252 248 248 248 249 249 250 250 250 250 250 250 250 250 250 250 250 250 250 250 250 251 251 251 251 251 251 251 251 250 249 250 250 250 250 250 249 249 248 248 248 248 248 248 249 249 249 249
250 250 249 248 246 246 246 246 245 250 247 247 245 245 246 245 246 246 247 247 248 248 249 249 250 249 249 251 253 252 252 253 254 254 254 254 250 247 247 248 248 248 249 250 250 250 250 251 251 250 251 250 250 251 250 250 250 250 250 250 251 251 252 252 251 250 249 249 249 249 250 250 250 249 249 248 247 247 247 248 247 247 248 248 248
248 249 250 250 249 247 247 247 247 246 246 246 245 246 247 247 246 247 247 246 246 247 248 248 248 249 250 250 250 251 251 251 251 251 251 251 250 248 248 248 248 249 250 250 250 250 250 251 251 251 251 251 251 251 250 250 250 250 250 250 250 250 251 250 250 250 249 249 249 249 249 249 249 249 248 248 247 247 247 247 247 247 246 247 247
249 248 250 250 249 249 248 248 247 246 247 246 245 245 246 246 246 247 246 245 247 248 248 248 249 250 250 249 250 250 250 250 250 251 251 251 251 251 248 249 250 250 250 250 251 250 251 251 251 251 251 251 251 251 251 250 250 250 250 250 250 250 250 250 250 249 249 249 249 249 249 249 249 248 248 248 247 247 247 246 246 247 247 247 247
249 249 249 250 250 248 248 247 246 246 245 246 246 245 246 247 247 247 246 247 247 248 248 249 249 250 250 251 252 252 250 250 250 250 250 250 250 250 250 250 250 250 251 251 251 251 251 251 251 251 251 251 251 251 251 251 250 250 250 250 250 250 250 250 250 249 249 249 249 249 249 248 248 248 247 247 249 248 247 247 246 246 247 247 247
249 249 249 248 249 247 247 247 247 248 246 247 246 246 247 247 247 246 247 247 248 248 248 249 250 250 251 252 253 253 252 251 250 250 250 250 250 250 251 251 251 251 251 251 251 251 251 251 251 251 251 251 251 251 251 251 251 250 250 250 250 250 249 249 249 249 249 249 249 248 248 248 249 248 248 249 247 246 246 246 246 246 246 246 247
249 249 249 248 248 248 248 247 246 245 245 245 246 248 248 247 246 246 248 248 248 248 248 249 250 250 251 251 251 251 250 250 249 250 250 250 250 251 251 251 252 252 252 252 252 251 251 251 251 251 251 251 251 251 251 251 251 250 250 250 250 250 249 250 250 249 249 249 249 249 248 248 248 247 247 247 246 246 245 245 246 246 246 246 246
249 248 248 248 248 246 247 246 246 246 246 247 248 247 247 247 247 246 247 247 248 248 248 249 249 250 250 251 251 250 249 249 249 250 250 250 250 251 251 252 252 252 252 252 252 252 251 251 251 252 252 252 252 251 251 251 250 250 250 250 250 250 250 250 250 250 249 249 249 249 248 248 248 247 247 247 246 245 245 245 245 245 245 245 246
249 248 248 247 247 246 246 246 246 246 247 247 246 247 247 247 247 248 248 248 248 248 249 249 249 249 250 250 250 250 250 250 250 250 250 250 251 251 252 252 252 252 252 252 253 252 252 252 251 251 251 252 252 251 251 251 250 250 250 250 250 250 250 250 250 250 250 249 249 249 249 248 247 246 246 246 246 245 245 245 245 246 245 245 245
249 249 248 248 247 246 246 246 247 246 246 246 246 247 247 246 247 246 248 248 248 248 249 249 249 249 249 250 250 250 250 250 250 250 251 251 251 252 252 252 252 252 252 253 253 252 252 252 252 251 251 252 252 252 252 251 251 251 250 250 250 250 251 251 251 250 250 250 249 249 248 248 247 247 247 246 246 245 245 245 245 245 245 245 245
249 249 249 248 248 247 247 247 246 246 245 246 246 246 247 247 247 248 248 248 249 249 249 249 249 249 249 249 249 250 250 250 250 251 251 251 252 252 252 252 252 252 253 253 253 253 252 252 252 252 251 252 252 251 251 252 251 251 251 251 250 250 250 251 251 251 250 250 250 249 248 248 247 247 247 246 246 245 245 245 245 245 245 245 245
248 248 249 248 247 247 247 246 248 248 247 247 247 247 248 247 248 248 248 248 248 248 249 249 249 249 249 249 250 250 250 250 251 251 251 251 252 252 252 252 252 252 253 253 253 253 252 252 252 252 252 251 251 251 251 251 251 251 251 251 251 251 251 251 251 251 251 250 250 249 248 248 247 247 247 246 246 245 245 245 245 245 245 245 245
248 248 248 248 248 249 248 248 247 248 248 247 247 248 247 247 248 248 248 248 248 249 249 249 249 249 249 250 250 250 250 250 251 251 251 252 252 252 252 252 252 252 252 252 253 253 252 252 252 252 252 251 251 251 251 251 251 251 251 251 251 251 251 251 251 251 251 251 250 249 248 247 247 247 247 246 246 246 245 245 244 245 245 245 245
248 248 248 248 248 248 248 247 248 247 246 246 247 247 247 247 248 248 248 248 248 249 249 249 249 249 249 249 250 250 250 250 251 251 251 252 252 252 252 252 252 252 252 252 252 253 252 252 252 252 252 251 251 251 251 251 251 251 250 250 251 251 251 251 251 251 251 250 250 249 249 248 247 247 247 246 246 246 245 245 245 245 245 244 244
248 248 248 248 248 248 247 247 248 247 247 247 247 247 247 247 248 248 248 248 248 249 249 249 249 249 249 249 250 250 250 250 251 251 251 251 252 252 252 252 252 252 252 252 252 252 252 252 252 252 252 252 251 251 251 251 251 250 251 251 251 251 251 251 251 251 250 250 250 250 249 248 248 247 247 247 247 246 246 246 246 245 245 245 245
Wind_Speed
9 7 5 6 6 6 6 6 7 5 5 4 5 5 5 6 6 4 4 6 5 5 5 5 5 5 5 5 6 7 7 8 7 7 6 4 6 4 5 6 6 6 6 8 7 7 8 7 7 8 8 8 7 7 7 8 8 8 7 7 7 7 8 9 11 15 15 8 10 10 12 13 14 12 14 12 13 13 16 12 14 12 12 12 13
6 5 5 6 6 6 6 5 4 4 5 4 6 6 5 6 4 4 5 4 4 4 5 5 5 5 5 6 7 7 7 8 7 6 5 6 6 5 6 7 6 6 6 8 8 7 7 7 9 9 7 7 8 8 8 8 9 8 8 8 8 8 7 9 11 11 17 15 11 11 11 10 12 14 12 14 13 12 14 14 11 11 10 11 11
5 5 6 5 5 5 5 5 4 4 5 4 6 5 5 4 4 4 4 4 4 3 4 5 5 5 5 6 6 7 7 7 7 6 5 6 5 6 6 5 6 6 7 8 8 7 7 8 9 9 8 8 8 7 7 8 8 9 9 8 9 9 9 8 9 12 15 15 12 12 10 11 11 13 15 12 12 11 13 12 12 11 10 10 10
5 5 5 5 5 5 6 4 5 4 5 4 5 4 4 4 4 4 4 3 3 4 4 5 5 5 6 6 7 6 7 7 7 5 5 5 5 6 5 6 6 6 6 6 7 8 8 8 9 9 9 9 9 8 8 8 9 8 9 8 8 9 9 8 7 10 13 15 15 11 11 11 12 10 12 13 12 12 9 10 11 12 10 9 9
5 5 4 6 5 6 5 4 5 5 5 4 4 4 4 4 3 3 3 3 3 4 5 4 5 6 7 6 7 7 7 8 7 4 5 4 5 5 5 6 6 6 6 6 7 7 8 8 9 9 9 9 9 9 9 11 10 9 9 9 9 9 8 8 9 8 11 13 14 10 10 10 9 10 10 12 15 14 9 8 10 10 12 10 7
5 5 4 6 6 6 4 4 5 4 4 4 4 4 4 4 4 3 1 3 4 4 5 5 4 5 5 5 5 6 6 7 7 3 5 4 4 5 5 5 6 6 6 6 6 6 7 7 8 8 9 9 10 10 10 11 10 10 11 10 10 9 10 9 9 10 10 10 10 15 10 10 13 11 9 10 12 13 16 13 6 5 8 11 12
4 5 4 6 6 5 4 4 4 4 4 4 3 4 4 3 3 3 2 1 4 4 4 4 4 4 5 6 7 7 7 7 6 3 4 4 5 6 6 6 5 5 5 6 6 6 5 6 6 7 7 7 9 10 11 11 10 10 10 10 10 10 10 10 10 10 9 11 11 8 11 10 9 13 14 13 11 8 12 14 17 11 5 7 12
4 4 5 6 5 5 4 3 4 4 4 4 4 3 3 3 3 3 1 4 4 4 4 4 4 4 5 5 6 6 6 7 7 4 4 3 6 5 6 6 6 6 6 6 6 5 5 6 5 6 6 5 6 8 9 10 10 10 9 9 10 10 10 10 10 10 10 10 9 11 9 11 11 9 10 11 11 9 5 11 13 14 15 12 9
4 4 5 6 4 4 3 3 3 4 4 4 4 4 4 2 3 2 2 4 3 3 2 3 4 5 6 5 7 7 7 7 7 6 2 4 7 6 6 6 6 7 7 7 6 6 5 5 5 6 7 11 13 12 12 13 10 10 10 10 10 10 10 9 9 9 10 9 11 9 10 10 10 12 13 12 12 12 14 10 10 12 12 13 11
6 4 5 4 3 3 3 3 4 4 4 3 3 3 3 3 2 3 4 4 4 3 4 3 4 4 5 6 5 6 8 7 12 17 5 5 7 6 5 6 6 6 7 8 8 7 6 6 7 11 12 12 12 13 14 16 16 11 9 9 9 9 9 10 10 9 10 11 10 11 13 12 13 11 12 11 12 11 10 11 13 13 11 11 10
6 6 5 3 3 3 3 4 4 4 2 2 2 2 2 2 2 3 4 4 4 4 3 4 4 4 4 5 6 5 6 7 17 18 13 13 9 6 5 6 5 6 6 6 8 9 9 8 7 9 9 9 10 12 14 17 16 15 14 12 10 8 9 10 10 10 10 11 11 10 10 13 14 12 12 12 9 12 11 11 11 11 11 15 16
6 6 5 3 3 2 3 3 3 3 2 2 1 1 1 1 3 3 4 4 4 3 4 4 4 4 4 4 4 5 5 9 15 16 19 14 11 6 5 5 5 6 6 7 7 7 9 9 8 7 7 9 11 10 13 16 16 14 15 12 12 12 11 9 9 10 10 11 12 11 11 11 12 12 13 13 16 14 11 11 10 11 13 12 10
6 6 5 4 2 3 3 3 3 2 1 1 1 1 1 2 3 4 5 3 3 3 4 4 4 4 4 4 5 5 5 9 14 15 18 15 16 9 6 5 6 6 6 7 7 8 8 8 9 9 8 11 10 10 12 14 15 15 15 12 11 11 12 13 12 8 9 10 10 13 11 12 14 13 13 17 15 13 13 10 10 9 8 10 11
6 6 5 3 2 3 3 3 2 1 1 1 0 0 1 3 2 2 2 3 3 4 4 4 5 5 4 4 4 5 5 8 12 14 17 16 16 10 5 6 5 5 6 7 6 7 7 8 8 9 9 9 9 11 12 12 12 12 12 11 10 11 12 13 12 14 11 8 9 12 14 12 11 11 16 15 13 13 13 14 14 14 13 12 14
6 5 4 3 3 3 4 2 1 1 0 0 0 1 2 2 3 3 2 3 3 3 3 4 4 4 5 4 4 5 5 10 11 13 16 16 16 9 5 6 5 6 5 5 6 6 7 7 7 8 9 9 9 13 14 13 12 12 12 12 11 10 9 8 7 7 8 7 8 11 14 11 10 12 13 11 11 11 11 14 15 14 14 14 10
6 4 4 3 3 3 3 2 1 0 0 0 1 2 2 2 2 3 3 3 3 3 4 3 3 5 5 4 4 5 6 10 11 12 15 16 14 7 6 7 7 7 7 6 6 6 6 6 7 8 9 9 11 18 18 14 12 12 14 13 13 11 8 6 10 13 10 10 10 12 12 13 17 15 15 13 11 10 11 11 9 10 12 11 11
6 5 5 4 4 3 3 3 2 1 1 1 1 2 2 3 3 2 3 3 3 4 3 3 3 3 4 4 4 5 5 8 11 11 14 17 11 6 6 7 7 8 7 7 6 6 6 6 7 7 9 9 14 20 21 20 11 13 13 15 14 13 12 11 13 14 16 18 20 20 21 20 20 21 21 22 16 13 10 10 10 11 11 13 11
6 6 5 5 4 3 3 3 3 2 2 2 1 0 0 1 1 1 2 3 4 4 3 4 4 3 3 4 4 4 5 8 11 11 13 15 11 6 6 7 8 7 9 7 6 6 6 11 9 7 9 11 16 20 23 17 11 12 12 15 17 15 14 13 12 13 17 17 16 15 15 16 16 16 17 18 18 14 9 11 13 10 10 9 13
7 7 6 4 4 3 3 3 3 3 3 1 1 1 1 1 3 2 2 2 3 3 3 3 4 4 4 4 6 5 6 7 10 11 12 13 10 4 6 6 7 8 9 11 8 6 8 7 10 10 10 14 19 21 22 16 11 10 11 12 13 14 12 13 13 15 15 16 14 14 13 11 9 9 9 14 15 12 8 9 10 9 10 11 11
7 5 4 4 4 3 3 2 3 3 2 1 0 0 0 2 2 2 3 1 2 2 2 2 4 4 4 4 5 5 6 6 6 12 11 11 12 6 3 6 8 10 8 8 11 11 9 8 8 11 16 18 19 21 20 18 13 10 8 8 11 14 13 13 12 12 14 12 13 12 12 11 10 9 8 8 8 7 9 8 8 8 10 10 10
6 6 5 5 4 4 3 3 4 3 2 1 0 0 0 1 2 2 2 2 3 3 4 4 4 5 4 5 4 5 4 5 6 10 11 11 12 9 4 5 6 7 8 9 7 8 9 10 9 11 15 18 19 20 19 18 15 10 7 7 9 14 16 12 14 14 12 12 12 11 10 10 10 9 9 9 9 9 8 9 8 7 9 10 10
6 5 5 5 4 4 4 3 3 2 2 2 1 2 1 0 0 0 0 1 3 3 3 4 4 5 5 4 4 5 5 7 6 7 10 11 11 11 6 4 6 7 9 8 8 8 8 9 10 12 17 19 20 20 20 17 17 9 9 14 19 19 14 10 10 10 9 9 10 10 10 11 11 11 11 10 10 11 10 9 8 9 8 7 9
5 5 5 5 4 4 3 3 3 2 1 1 1 1 1 1 1 1 2 2 3 3 3 4 4 5 6 5 5 5 6 6 8 6 8 10 11 11 11 8 11 6 6 9 9 10 9 9 11 14 18 20 20 21 18 18 11 8 16 18 17 19 13 8 9 9 9 9 9 10 10 10 11 11 11 11 11 11 10 9 10 11 10 9 9
7 5 5 5 5 4 3 2 2 2 1 2 2 2 1 1 0 1 1 1 1 4 5 4 4 4 6 7 6 5 5 5 6 8 7 10 11 12 12 12 11 7 6 7 8 8 9 10 12 19 20 20 21 20 18 14 10 15 16 16 16 13 8 9 8 9 10 10 10 10 11 10 10 11 11 11 11 12 11 10 10 10 9 9 10
6 6 6 6 5 4 2 2 2 1 1 2 2 1 1 0 0 1 1 1 1 2 5 3 3 5 5 6 7 7 6 6 6 6 9 9 10 11 12 13 13 12 9 7 8 8 11 18 19 19 18 19 19 17 12 11 13 14 15 15 12 7 8 8 9 9 10 10 10 10 10 10 9 10 11 11 12 11 11 10 10 9 9 9 9
7 7 6 5 6 4 5 2 1 1 1 1 2 2 1 1 1 1 1 1 1 2 4 3 4 4 5 6 6 8 8 7 7 6 6 6 6 9 11 11 11 11 10 9 12 16 16 16 17 16 14 13 10 8 9 9 12 14 13 11 6 7 6 7 8 9 9 10 10 11 11 11 11 11 11 10 10 10 11 12 12 10 10 10 10
8 7 7 7 5 4 6 5 3 1 1 1 1 1 1 1 1 1 2 2 2 2 2 2 4 4 5 6 7 7 8 7 7 6 6 6 7 7 8 8 8 9 9 9 9 10 12 11 11 15 14 17 14 11 10 10 9 8 7 6 6 6 7 6 7 8 9 10 11 10 10 10 10 10 11 10 10 10 9 11 11 11 11 10 10
9 8 8 6 5 6 6 5 4 2 1 1 1 1 1 2 4 5 4 4 3 4 3 4 4 5 5 6 7 7 8 7 6 6 8 8 8 8 7 8 8 8 9 9 10 11 11 10 11 8 8 8 8 7 7 6 7 7 7 7 7 7 8 9 8 5 6 7 9 10 10 10 10 11 10 10 10 10 10 10 10 11 10 10 10
7 8 6 5 7 4 4 4 4 3 1 0 2 5 4 5 6 6 5 5 4 5 5 6 6 4 5 6 7 8 8 8 7 6 9 9 10 9 10 9 9 9 8 12 13 11 8 8 8 9 8 9 10 9 9 10 10 8 7 7 7 7 7 6 8 9 9 9 9 10 11 10 11 10 10 11 11 11 10 10 9 10 10 8 8
7 8 6 7 5 5 4 4 3 2 2 0 1 3 4 7 7 6 7 5 8 8 7 6 5 5 6 7 6 7 9 10 10 15 14 13 14 14 13 14 14 12 12 16 10 8 8 8 8 8 9 8 9 9 10 9 10 11 10 7 8 7 7 7 7 8 9 9 9 9 10 10 11 11 11 11 12 10 10 10 11 10 10 11 11
8 6 7 7 7 7 5 5 4 3 2 1 0 1 5 6 6 10 10 8 7 8 10 12 12 10 8 8 7 11 13 15 16 16 14 13 14 14 15 16 16 16 14 11 7 5 7 9 9 8 8 7 8 9 9 9 9 10 11 10 8 7 8 7 8 9 9 9 9 8 8 9 10 10 11 11 12 12 11 9 9 9 9 10 10
9 8 8 7 7 6 5 5 4 3 1 1 1 1 2 4 8 5 4 6 7 9 10 11 11 11 11 10 8 8 10 12 14 14 15 16 14 14 15 16 17 15 14 11 7 8 6 7 9 9 8 9 9 8 8 9 9 9 10 11 11 8 8 9 9 9 9 9 9 9 9 9 9 10 10 11 12 11 11 12 11 11 11 9 9
9 8 7 7 7 6 5 5 4 5 3 1 1 0 1 2 4 7 7 5 7 10 10 10 9 9 8 9 12 12 13 14 15 15 15 14 14 14 16 17 15 15 12 6 4 8 7 7 8 8 8 9 9 9 9 8 8 9 8 9 10 10 9 9 9 8 8 9 9 9 9 9 9 10 10 10 10 11 11 11 11 10 10 11 11
9 8 9 9 8 6 7 6 6 5 4 3 1 2 2 2 3 3 5 9 7 4 4 5 7 8 9 11 13 14 14 13 14 14 14 14 14 14 15 12 13 11 7 6 6 8 8 8 8 8 8 8 8 8 9 8 8 9 9 9 9 9 10 8 8 8 8 9 9 9 9 8 9 9 10 10 9 9 10 10 11 12 11 11 11
7 8 10 8 7 7 6 5 5 4 4 2 2 2 2 2 2 2 3 4 6 7 9 7 5 6 8 8 10 13 13 13 13 13 14 15 14 14 13 8 8 4 3 2 5 6 8 8 9 9 8 9 9 8 9 9 8 8 9 10 10 9 9 9 8 8 8 8 9 9 9 9 9 8 9 10 11 11 10 11 10 10 11 11 11
8 8 6 7 7 7 6 6 5 5 5 4 2 1 3 2 4 4 4 3 5 7 8 6 7 7 12 13 13 12 12 12 13 14 14 13 12 9 7 9 8 8 8 8 5 7 6 7 8 9 8 8 8 8 8 9 8 8 8 9 10 10 9 9 9 9 8 8 8 10 10 8 8 9 9 8 9 10 10 10 11 11 11 10 10
8 7 7 6 7 5 5 5 5 4 4 4 2 1 2 3 4 3 5 5 6 5 6 9 9 10 6 4 6 8 11 13 14 14 13 11 9 4 4 6 7 8 9 9 8 8 9 8 7 8 8 8 9 8 8 9 9 9 8 9 9 10 9 9 9 9 9 9 8 8 9 9 8 8 9 10 10 9 10 10 11 11 11 13 13
8 8 7 7 6 5 5 6 4 5 4 1 1 1 2 3 4 4 5 6 6 6 7 7 5 6 9 10 5 6 11 10 11 9 6 5 4 3 5 5 6 7 9 9 8 8 9 10 8 8 9 8 9 9 8 9 8 8 9 9 9 9 12 11 10 8 8 8 8 8 8 8 8 8 8 8 9 10 10 11 11 11 11 12 10
5 7 9 9 6 6 6 5 4 3 2 1 1 2 4 4 4 5 5 5 5 6 7 6 7 8 8 7 8 8 9 10 9 10 9 8 6 5 6 6 6 7 8 8 8 8 8 10 9 8 8 8 9 8 8 9 8 9 8 9 9 9 9 9 9 8 8 8 8 7 8 8 7 7 7 8 8 9 10 10 10 10 11 11 10
7 7 8 9 6 6 6 6 4 4 5 2 2 1 2 4 4 4 5 5 6 6 6 7 8 9 7 6 7 7 9 10 9 9 10 10 9 8 5 7 7 8 9 9 8 8 9 9 9 9 9 9 8 9 8 8 8 9 8 8 9 10 9 8 9 9 8 8 8 8 8 8 7 7 6 6 7 8 9 10 10 10 10 10 11
7 7 7 6 7 6 6 5 5 4 4 3 3 3 5 5 4 5 5 6 6 7 7 8 9 9 7 8 9 9 7 10 10 9 9 10 10 10 9 8 7 9 8 8 9 8 8 9 9 9 9 9 8 8 8 8 8 8 8 9 8 9 9 8 8 8 8 8 8 8 7 7 7 7 8 7 7 7 7 8 8 9 9 9 10
8 8 6 6 7 6 6 6 6 5 4 4 3 4 5 5 4 4 6 5 7 7 7 9 9 9 8 10 10 11 9 8 8 9 10 9 9 9 9 8 7 7 8 8 9 9 9 9 9 9 9 9 9 9 8 9 8 8 9 9 9 9 9 8 8 8 8 8 8 7 7 7 7 6 7 7 7 7 8 8 8 8 8 9 9
8 7 7 7 7 7 7 6 5 5 4 4 5 4 5 4 4 6 6 7 6 7 7 9 10 8 9 7 8 9 7 8 7 9 9 9 9 9 9 9 8 8 8 8 8 8 9 9 10 9 9 9 8 8 9 9 9 9 9 9 9 9 9 9 8 8 7 8 8 7 7 7 7 6 6 6 6 7 7 8 8 8 8 8 8
6 6 7 7 7 4 5 6 5 5 4 5 4 5 4 4 4 4 6 6 7 7 8 9 9 9 10 8 7 6 7 7 8 8 9 9 9 9 9 9 9 9 8 8 8 7 7 9 9 10 9 8 8 7 7 7 7 8 9 9 10 10 9 9 8 8 8 9 9 8 8 7 6 6 7 7 6 8 8 7 8 8 8 7 8
6 7 7 7 6 6 6 4 5 5 6 5 3 5 4 4 5 5 5 7 8 8 8 8 8 8 9 9 7 8 8 8 9 9 9 9 9 10 9 9 9 9 9 9 8 7 7 8 9 10 11 9 7 7 7 7 6 6 7 8 9 10 9 9 8 8 8 8 9 8 8 7 7 6 6 6 6 6 7 7 8 8 8 8 8
7 7 7 7 7 7 7 6 7 5 5 5 4 5 4 4 5 5 6 7 7 8 9 9 8 8 8 8 8 8 8 8 9 8 9 9 9 9 9 9 9 9 9 9 9 8 8 8 8 9 10 10 9 8 7 7 7 6 7 7 8 9 8 8 8 7 7 7 8 8 8 8 7 6 7 7 6 6 7 7 6 7 7 8 8
7 7 7 7 7 7 7 7 6 5 5 5 4 4 5 5 5 5 7 8 8 8 9 9 8 9 8 8 8 9 8 8 9 9 10 10 10 10 9 9 9 10 10 9 8 8 9 8 8 8 9 9 9 9 8 7 6 6 6 6 7 8 7 7 7 7 7 7 7 7 8 7 8 7 7 6 6 6 6 7 7 8 7 7 8
7 7 7 7 6 7 6 6 6 6 6 6 5 5 5 5 5 6 6 7 7 8 8 9 8 8 8 8 7 7 8 8 9 9 9 9 9 9 9 9 10 10 10 10 9 8 8 8 8 8 8 9 9 9 8 8 7 7 6 6 6 7 9 10 8 8 7 7 6 7 7 7 7 7 7 7 7 7 7 7 7 6 7 7 8
7 7 7 7 7 7 7 7 7 7 6 6 5 5 5 5 5 6 6 7 8 8 8 9 9 8 8 8 7 8 8 8 9 9 9 9 9 9 9 9 10 10 9 10 10 9 9 8 8 8 8 8 8 8 8 8 8 7 7 7 8 12 13 13 10 9 10 8 7 6 6 6 7 8 7 7 7 6 7 7 6 7 7 6 7
7 7 7 7 7 7 6 6 6 6 6 6 5 5 5 5 6 6 6 7 8 8 8 8 9 8 8 8 8 8 7 8 9 9 10 9 9 9 9 10 10 10 9 10 10 9 9 8 8 8 8 7 7 7 7 7 8 8 7 8 11 14 14 15 14 13 10 6 7 6 7 7 7 7 7 7 7 7 7 7 7 7 6 7 7
7 7 7 7 7 6 6 6 6 6 6 6 6 6 6 6 6 6 6 7 9 9 8 8 8 8 8 8 7 8 9 9 9 9 9 9 9 9 10 10 10 10 10 10 10 9 8 8 8 8 7 8 8 7 7 7 7 8 10 13 15 15 15 13 10 10 12 10 7 7 7 8 8 9 8 7 6 6 8 8 7 7 6 6 6
Wind_Direction
76 78 77 72 77 70 66 62 60 58 64 60 65 54 47 43 37 33 23 28 14 6 9 10 11 8 1 3 5 360 358 353 349 341 339 2 2 356 352 357 2 357 356 355 357 357 356 351 346 343 337 340 340 334 336 338 334 329 324 326 328 328 328 319 309 304 305 308 306 313 322 325 322 327 323 325 328 330 332 323 323 322 322 323 322
81 85 79 80 74 70 67 62 61 59 65 54 57 51 42 39 33 23 32 10 14 4 10 10 8 6 6 4 6 358 355 350 341 335 334 18 1 1 357 357 2 356 355 356 352 352 348 349 347 343 339 341 337 336 336 335 335 331 328 333 330 326 327 319 310 304 305 314 314 316 317 329 314 325 326 328 328 328 325 323 317 316 319 318 324
89 88 83 78 75 71 70 64 62 61 63 51 52 45 36 31 24 30 15 8 359 10 12 17 8 6 10 7 2 356 351 343 334 332 357 18 5 359 358 357 359 355 353 351 346 342 345 348 344 342 336 340 342 335 334 335 332 327 325 330 329 324 320 315 311 309 309 307 314 316 321 324 324 321 325 322 319 320 317 318 318 315 314 316 317
93 89 89 83 79 76 69 64 65 60 60 48 50 35 31 23 10 20 7 353 13 4 21 21 12 11 12 7 0 352 346 340 331 332 18 11 10 359 357 359 357 352 347 341 341 344 340 340 342 341 337 338 339 338 337 333 331 326 325 328 325 321 318 315 309 304 308 307 315 319 318 319 316 318 318 317 319 318 313 306 311 311 307 314 319
97 92 95 93 79 77 71 64 66 58 57 46 40 30 22 15 5 5 360 4 6 28 22 16 19 13 11 2 352 347 340 329 325 346 22 11 10 4 0 0 355 349 344 338 338 338 336 335 330 335 338 338 339 340 336 335 331 327 327 328 327 323 318 316 311 305 304 305 307 312 315 309 305 310 322 327 323 318 312 303 313 311 314 311 319
99 100 98 91 83 77 72 66 61 61 56 45 35 20 14 10 357 345 354 8 16 31 29 7 14 8 5 356 348 341 331 323 316 18 20 6 14 15 2 359 352 346 341 339 334 335 333 328 324 329 334 339 337 334 333 331 328 326 326 329 329 326 323 318 314 311 309 303 307 311 320 321 322 323 327 324 320 318 318 318 298 299 314 324 328
107 103 97 92 86 77 70 63 62 60 50 39 24 21 9 354 351 336 328 20 42 30 9 11 357 10 1 355 351 336 328 320 324 34 25 5 22 18 1 355 350 343 339 333 329 328 327 323 320 321 323 324 329 331 328 326 325 321 324 327 329 328 324 322 320 318 314 312 310 302 306 316 320 318 327 323 313 308 318 321 324 331 323 330 325
112 104 98 90 83 78 76 69 64 58 50 35 29 14 7 357 344 319 340 28 32 21 4 2 347 7 358 351 339 333 329 329 339 24 38 2 32 20 1 351 344 341 336 332 328 326 323 319 313 309 306 306 322 322 323 322 321 320 324 328 329 327 324 320 320 319 320 319 316 318 318 315 318 308 307 315 315 316 324 320 316 326 334 330 329
116 107 99 91 86 84 76 67 61 56 39 38 24 8 356 342 330 329 16 23 17 358 343 353 4 8 360 354 342 337 336 333 335 6 75 17 44 21 357 346 342 338 335 332 328 325 324 320 316 313 319 325 324 323 322 320 318 317 323 329 329 326 320 319 316 318 316 316 314 314 315 316 321 323 328 334 334 323 317 320 313 324 322 319 323
121 114 100 96 93 87 85 72 64 53 44 32 11 351 347 337 334 4 20 16 7 347 351 349 14 9 356 348 342 338 337 321 338 357 96 61 55 19 357 347 340 335 335 333 332 332 327 324 319 320 325 321 321 320 319 321 318 313 315 325 325 322 320 318 319 320 319 320 322 324 325 326 327 329 319 311 306 301 314 335 328 322 314 306 305
121 114 107 104 97 94 84 72 64 55 29 22 5 358 344 333 359 19 18 14 356 340 343 355 2 356 351 344 337 335 332 321 348 349 6 75 57 29 2 342 335 333 333 331 330 330 330 327 324 327 326 324 326 322 322 321 315 315 314 311 316 316 314 316 314 318 320 317 317 321 317 315 319 317 308 306 312 331 335 331 320 322 331 334 330
125 114 108 104 96 90 86 75 67 44 30 14 337 327 322 352 25 23 21 9 342 332 349 347 347 348 342 333 327 324 319 338 355 355 346 44 60 41 2 346 335 332 329 328 325 326 326 327 327 326 322 326 327 326 323 322 318 317 322 315 309 308 307 307 308 313 316 317 320 319 318 310 310 314 316 327 332 331 334 323 322 326 325 327 322
128 119 113 107 102 97 86 81 69 47 9 317 313 330 328 27 29 22 6 327 320 341 334 344 344 338 343 331 323 320 319 333 359 357 347 10 29 38 358 345 336 327 321 322 323 324 325 325 325 325 323 324 326 323 323 322 320 322 326 319 313 311 312 309 299 283 292 306 309 314 315 313 312 313 325 329 329 326 325 324 325 322 317 313 317
128 124 119 115 116 105 90 85 79 37 322 319 331 339 30 39 18 3 348 334 336 334 345 346 342 342 331 322 310 305 320 318 355 358 351 5 24 17 353 341 328 314 315 315 316 318 318 318 319 320 322 325 322 322 324 320 320 324 326 327 325 320 319 312 306 313 315 302 303 304 306 302 293 303 324 325 335 331 327 325 328 323 323 320 313
132 130 129 129 123 101 93 97 101 30 326 311 354 49 42 24 18 359 336 317 310 318 318 329 331 335 328 317 305 313 312 328 352 356 353 359 16 7 349 340 329 323 313 307 307 308 308 306 304 303 312 320 318 321 326 325 326 325 324 325 323 320 312 305 294 299 310 306 298 298 298 302 302 317 318 330 335 323 322 319 318 313 310 304 295
136 136 139 144 133 121 116 121 118 213 289 267 115 51 39 33 356 332 329 322 308 323 338 349 340 327 319 315 310 317 316 332 347 354 357 358 14 356 350 341 333 324 321 319 316 307 301 302 305 309 314 316 314 321 327 332 327 328 329 326 326 323 312 280 308 323 321 317 309 307 313 320 328 328 330 336 327 319 314 309 300 308 313 317 321
150 151 152 159 146 135 141 148 161 182 219 152 89 52 31 353 337 333 339 326 326 334 322 306 301 307 314 320 312 315 318 324 339 348 1 360 9 354 346 340 332 327 321 317 311 308 301 301 306 311 317 319 319 324 330 336 329 332 331 329 327 326 326 329 328 326 327 325 323 323 325 326 326 329 331 332 327 327 317 317 325 327 327 325 324
159 157 164 171 158 151 162 161 167 186 179 143 126 173 280 284 284 311 304 310 320 316 305 320 326 314 309 314 304 318 315 319 334 345 0 1 6 356 339 335 325 319 319 318 317 312 304 311 316 317 320 321 321 326 332 334 331 332 331 328 326 329 326 332 330 327 327 325 322 320 317 317 319 318 318 320 323 328 330 328 323 324 322 322 318
167 168 172 170 162 163 170 166 175 183 173 185 182 26 347 306 293 303 287 287 281 291 322 334 321 320 315 309 312 317 308 317 330 344 355 359 358 356 345 332 325 329 330 326 324 318 320 320 321 322 320 319 322 327 329 331 334 332 328 324 322 323 324 327 328 327 330 332 331 332 329 326 319 315 314 317 321 323 320 314 316 323 319 318 315
167 160 160 159 151 161 165 169 186 175 185 208 213 218 294 335 320 313 313 307 308 323 338 335 323 303 304 314 310 308 312 316 325 342 350 352 354 350 344 346 334 326 325 322 323 326 328 326 326 323 322 321 323 323 325 332 335 327 324 319 320 321 324 325 322 321 319 319 317 319 315 317 318 321 322 324 324 324 327 317 313 314 313 312 314
158 161 153 149 158 175 175 163 179 223 205 193 218 336 66 295 318 343 342 338 6 357 349 328 320 305 305 303 305 309 307 313 317 336 342 346 347 348 334 329 314 314 316 316 314 315 320 324 319 315 315 318 319 319 323 328 330 323 313 305 317 316 322 319 318 321 317 319 319 321 322 326 328 329 329 328 330 329 324 319 310 307 308 309 312
150 146 153 161 165 171 179 200 191 191 211 168 68 12 355 10 256 274 320 38 24 344 331 329 321 310 308 302 299 299 308 315 310 322 333 337 338 339 333 310 317 317 318 313 313 314 313 311 313 309 310 315 316 318 321 324 324 318 311 321 321 323 325 313 311 315 320 322 322 324 327 331 332 334 331 331 331 329 324 319 315 311 306 295 298
154 153 154 153 170 186 190 181 195 211 197 167 121 55 335 21 5 40 52 27 18 344 328 326 333 323 318 308 299 297 302 305 315 314 322 328 331 334 330 326 325 319 305 306 307 303 303 302 300 301 310 313 315 316 318 318 316 309 318 322 320 325 323 318 317 320 323 323 325 328 329 331 331 331 331 330 327 325 323 319 318 316 311 304 300
151 152 158 163 175 186 190 199 221 231 202 149 115 96 32 9 25 29 65 62 359 342 320 327 335 334 329 318 316 309 302 304 307 312 313 321 323 328 330 326 324 312 299 283 294 292 298 301 300 305 310 311 312 313 314 312 305 311 318 317 323 325 323 322 326 326 322 324 330 330 329 328 325 324 328 325 322 323 321 321 317 313 309 310 307
155 159 160 167 175 184 181 191 203 203 214 145 110 100 65 49 81 314 45 15 7 334 303 316 322 311 320 312 310 311 310 309 303 303 310 311 319 320 323 324 320 317 311 297 289 290 290 294 300 305 308 308 308 308 307 303 304 312 316 321 326 326 326 326 324 326 329 331 329 323 321 325 320 312 313 314 316 318 323 325 324 319 317 310 306
161 162 164 166 178 169 146 169 189 185 153 153 145 161 167 183 201 268 307 291 265 282 292 312 307 312 306 301 302 302 304 306 304 306 309 312 313 317 317 315 310 307 299 291 289 292 296 302 305 309 310 306 307 308 308 307 311 316 320 323 325 322 322 323 324 328 326 324 325 324 320 318 320 319 315 318 324 329 331 329 330 332 335 333 329
159 158 162 168 173 157 148 165 176 193 109 83 108 138 158 171 203 249 236 248 283 280 280 292 299 306 307 304 305 306 305 304 305 309 321 327 325 324 324 323 320 317 321 318 317 316 312 312 310 305 300 301 301 299 297 305 315 320 323 323 321 319 318 320 321 320 319 320 319 316 315 314 312 319 328 331 329 329 334 330 329 330 333 334 329
161 166 166 165 172 172 159 177 168 175 205 105 188 304 285 206 216 230 224 217 236 281 276 277 279 285 295 298 303 306 303 302 301 318 326 327 323 323 323 322 322 321 314 312 310 310 308 308 309 307 309 315 320 325 323 320 314 317 321 321 319 316 312 310 308 302 303 306 302 306 310 319 325 326 325 328 327 328 333 333 331 327 334 332 335
156 157 161 156 169 170 169 170 172 175 189 345 237 207 220 229 226 255 248 210 199 210 242 263 262 250 242 269 292 303 302 301 297 306 306 305 307 313 322 320 316 309 294 297 307 309 311 311 316 323 329 327 328 327 328 331 328 323 318 322 323 322 321 331 330 327 323 321 319 318 317 321 321 325 326 325 329 330 334 331 331 329 328 336 333
155 161 164 162 169 165 168 182 175 156 155 148 358 321 249 227 223 223 262 244 224 232 225 232 236 239 263 258 221 247 276 283 297 302 299 298 300 299 296 302 304 299 299 305 305 301 309 313 313 317 319 326 324 324 326 328 325 326 326 324 324 322 323 325 321 320 322 320 314 316 318 321 321 327 328 326 323 328 333 335 329 332 332 338 336
159 165 165 171 171 166 167 176 179 151 142 127 134 286 320 313 263 239 237 248 250 251 253 258 264 261 246 277 265 236 252 269 282 287 289 291 298 302 308 309 309 306 308 317 314 306 309 315 312 314 311 312 311 314 319 320 321 321 319 322 321 320 321 323 323 322 320 317 316 314 315 320 320 323 326 327 326 325 329 332 330 332 335 333 332
169 172 169 171 166 167 175 173 167 151 134 104 135 241 317 320 312 304 256 256 267 270 269 270 268 267 267 263 276 291 281 279 282 286 292 297 300 304 308 309 308 308 308 311 297 298 301 301 307 310 314 314 310 312 312 313 313 315 316 320 321 324 325 323 323 322 315 315 317 320 323 322 321 321 323 324 326 326 329 332 338 336 333 332 330
160 163 169 165 167 171 173 172 171 160 162 163 181 124 235 294 313 314 323 310 284 273 269 263 269 277 281 286 287 285 288 292 293 294 297 298 301 305 309 307 304 305 310 309 284 297 302 301 298 300 305 303 308 308 307 307 308 310 311 309 310 315 316 310 314 311 312 314 315 318 320 319 321 321 322 325 329 329 331 331 331 331 330 330 332
164 165 165 167 166 178 179 178 165 173 166 159 171 197 238 223 247 271 311 324 337 323 291 283 289 293 287 285 288 290 289 289 293 296 298 300 305 308 313 306 302 291 279 285 302 296 299 300 296 297 298 297 297 303 304 305 307 305 306 303 299 303 307 312 316 315 317 318 319 317 319 319 323 325 324 326 326 324 327 329 331 333 335 335 329
164 165 159 160 169 175 180 172 171 161 140 146 179 203 241 252 259 275 281 289 295 294 302 300 286 264 278 291 290 288 289 290 294 298 301 303 306 311 312 315 324 328 310 263 271 278 292 293 298 298 299 300 300 301 301 302 305 306 307 308 307 308 311 318 315 315 316 318 319 319 321 323 324 325 324 326 328 331 332 332 333 331 328 329 330
163 159 167 162 163 170 173 177 168 161 158 180 178 198 218 256 271 273 270 272 274 290 297 284 292 299 291 283 278 282 286 293 298 299 297 299 303 320 331 322 321 314 314 306 294 285 274 278 284 290 294 292 293 295 294 299 299 300 301 304 306 310 312 313 316 317 317 316 314 316 318 320 324 325 322 319 322 324 327 329 328 327 325 325 327
160 163 167 169 168 167 172 171 166 161 156 151 148 197 259 264 265 268 274 278 285 279 274 299 317 313 295 267 268 285 291 297 298 296 293 290 293 295 269 277 285 296 299 300 303 299 299 292 285 288 290 292 295 294 297 295 298 298 298 297 300 304 305 308 310 315 315 316 315 317 319 319 325 327 329 323 324 325 327 328 328 325 325 325 325
165 170 170 167 163 160 161 168 172 158 151 144 155 181 259 267 265 265 275 285 283 287 295 299 297 288 298 300 326 318 307 298 285 280 273 287 302 291 269 265 268 275 286 292 288 291 291 293 293 290 292 293 293 298 296 296 298 299 301 301 302 298 301 304 306 306 304 306 311 317 319 319 323 323 324 322 322 326 328 330 329 326 326 327 328
167 166 164 164 163 167 171 162 165 152 163 160 185 203 248 261 272 280 278 281 285 286 282 286 286 286 282 294 313 313 319 318 332 321 317 309 290 271 277 280 278 281 277 276 287 286 287 293 296 294 292 293 294 295 295 296 298 298 298 301 301 303 308 311 310 310 310 310 312 315 315 315 318 318 319 318 321 324 325 325 327 327 327 326 326
163 167 168 168 165 171 167 171 166 161 172 172 212 203 242 257 264 270 282 286 285 283 284 286 287 284 286 306 303 319 314 304 303 308 311 309 310 306 296 294 292 287 292 294 290 289 291 291 294 297 298 297 295 295 295 294 295 296 298 297 300 305 304 307 307 309 311 312 311 313 315 316 316 315 311 315 315 323 325 325 326 324 321 318 319
162 160 162 169 169 167 169 166 171 176 172 178 196 206 231 249 259 266 273 272 276 281 282 277 276 279 282 279 279 286 282 289 296 299 297 297 301 301 302 293 290 291 290 289 290 291 288 291 294 295 295 295 295 294 296 296 296 297 298 298 298 297 300 301 303 304 306 308 309 310 311 311 313 318 319 319 319 320 317 317 317 317 316 317 321
161 162 167 171 169 173 179 187 183 174 172 185 205 214 234 245 256 264 267 271 272 277 283 285 279 283 278 272 278 286 283 280 282 286 289 288 287 289 287 284 276 270 279 283 288 292 293 292 290 292 293 295 298 298 300 299 300 300 301 302 301 302 302 304 305 305 306 306 307 306 307 309 311 311 310 313 317 318 318 319 317 316 317 321 321
163 171 166 165 173 184 188 186 168 169 192 200 221 221 225 234 250 258 265 269 269 274 278 283 288 290 289 285 289 288 277 276 277 280 280 285 285 285 285 284 284 278 274 274 276 273 278 283 287 287 286 288 289 292 293 295 300 299 300 297 300 300 301 303 305 306 306 306 305 306 306 307 309 311 310 312 310 313 314 316 316 317 316 317 317
166 163 165 173 177 181 181 165 179 190 196 205 211 212 220 232 251 258 261 272 271 272 269 273 279 290 293 299 297 287 280 280 279 279 280 284 283 286 286 287 289 288 286 281 278 273 274 281 284 287 284 283 281 278 277 279 282 286 292 296 298 299 300 301 305 308 310 309 308 309 310 308 308 308 309 309 312 314 317 317 317 317 318 318 317
161 165 165 172 178 181 186 188 185 189 195 198 215 225 226 234 251 256 259 267 272 273 270 272 276 280 287 293 295 292 288 285 283 283 283 282 285 286 288 289 289 289 292 290 286 281 280 281 283 289 293 292 288 285 283 278 271 268 274 282 290 296 298 300 299 299 299 300 302 304 306 310 310 308 304 303 306 311 310 314 314 315 315 317 319
169 167 171 176 181 187 186 189 186 183 191 200 214 236 240 234 244 252 259 263 267 272 276 275 274 275 276 284 287 285 284 286 284 282 283 284 283 286 287 288 289 288 287 288 290 288 283 281 285 288 292 295 298 296 292 287 283 274 272 268 274 279 284 288 289 291 290 292 296 298 301 301 301 297 295 300 305 300 300 301 303 303 305 309 309
167 175 176 183 186 191 188 181 176 188 196 206 215 227 240 239 243 251 253 257 264 269 271 275 277 277 278 278 282 283 285 283 286 288 287 287 286 286 288 290 291 292 290 289 287 287 286 286 283 284 288 292 296 296 296 292 289 283 274 273 273 280 281 282 284 283 286 287 286 291 293 294 296 299 294 294 294 295 295 299 301 306 306 305 304
175 180 185 185 186 187 192 180 191 195 201 209 216 223 233 242 249 253 259 264 264 267 268 272 269 272 276 277 275 276 279 281 282 281 284 284 286 286 288 290 292 292 295 294 293 289 288 287 288 288 289 292 295 297 297 297 295 291 288 283 280 278 283 287 289 288 282 281 278 278 282 286 287 288 291 291 292 295 299 299 302 298 298 299 300
182 181 185 189 197 197 193 194 193 197 205 203 213 227 234 241 250 254 259 262 265 265 264 271 275 275 271 272 276 278 280 282 283 286 284 285 287 289 289 289 289 290 292 293 295 296 295 293 290 289 289 289 289 291 293 295 294 294 292 289 286 286 289 290 291 288 289 287 281 276 274 273 279 282 283 285 285 285 284 286 288 292 293 292 293
187 186 190 194 199 205 198 194 195 200 198 202 210 232 234 241 252 254 259 263 267 266 268 264 269 270 275 281 285 284 286 285 286 287 288 290 290 291 292 291 291 291 292 292 296 297 298 296 295 293 291 289 287 287 288 289 290 290 289 287 287 290 291 292 292 290 290 285 282 278 276 278 278 278 278 278 280 283 283 283 285 284 289 292 293
189 191 197 198 202 196 190 197 199 202 200 206 213 226 236 241 247 253 257 259 263 267 270 270 271 273 273 270 275 281 284 284 282 283 285 288 290 292 292 294 294 296 295 296 296 297 296 298 297 295 294 292 292 289 288 286 285 284 286 288 292 293 293 294 294 293 291 291 289 285 282 280 283 287 287 285 283 279 278 283 286 287 285 285 287